"2009-09-25 00:00:00",1270367,4.37,334.6,0.834,0.055,10.52,104.8124,11.59,12.69,44.04,0,110.3,13.35,12.38,296.6
"2009-09-25 00:00:30",1270368,4.352,333.3,1.132,0.133,10.63,104.8124,11.59,12.63,43.9,0,110.3,13.35,12.38,295.3
"2009-09-25 00:01:00",1270369,4.094,333.6,1.762,0.104,10.91,104.8126,11.59,12.63,43.85,0,110.3,13.35,12.39,295.6
"2009-09-25 00:01:30",1270370,4.12,334,1.974,0.089,11.31,104.8132,11.59,12.64,43.87,0,110.3,13.35,12.39,296.0
"2009-09-25 00:02:00",1270371,5.924,342.1,6.709,1.177,15.28,104.8171,11.6,12.96,44.14,0,110.3,13.32,12.40,304.1
"2009-09-25 00:02:30",1270372,6.305,344.6,4.981,0.935,16.14,104.8326,11.64,12.99,44.13,0,110.3,13.32,12.44,306.6
"2009-09-25 00:03:00",1270373,5.123,335.7,7.1,1.295,12.97,104.844,11.67,12.77,43.98,0,110.3,13.32,12.47,297.7
"2009-09-25 00:03:30",1270374,4.362,329,4.012,0.774,11.2,104.8489,11.69,12.84,44.08,0,110.3,13.32,12.48,291.0
"2009-09-25 00:04:00",1270375,5.236,331.6,7.149,1.197,11.96,104.8483,11.68,12.76,44.02,0,110.3,13.32,12.48,293.6
"2009-09-25 00:04:30",1270376,4.483,328.2,2.138,0.079,10.75,104.848,11.68,12.77,44.1,0,110.3,13.36,12.48,290.2
"2009-09-25 00:05:00",1270377,4.637,326.8,1.179,0.089,10.72,104.8474,11.68,12.73,44.02,0,110.3,13.36,12.47,288.8
"2009-09-25 00:05:30",1270378,4.675,327.7,0.609,0.059,11.28,104.8497,11.69,12.73,43.94,0,110.3,13.36,12.48,289.7
"2009-09-25 00:06:00",1270379,5.223,327.4,5.498,1.123,12.64,104.8576,11.71,12.85,44.03,0,110.3,13.33,12.50,289.4
"2009-09-25 00:06:30",1270380,6.733,333.4,6.156,1.032,15.67,104.8635,11.72,13.03,44.33,0,110.3,13.32,12.52,295.4
"2009-09-25 00:07:00",1270381,6.349,332.8,6.491,1.091,14.59,104.8663,11.73,12.94,44.34,0,110.3,13.32,12.52,294.8
"2009-09-25 00:07:30",1270382,4.233,321.3,0.492,0.113,10.73,104.8703,11.74,12.78,44.23,0,110.3,13.32,12.53,283.3
"2009-09-25 00:08:00",1270383,5.045,329.4,7.048,1.201,12.55,104.8672,11.73,12.9,44.43,0,110.3,13.32,12.53,291.4
"2009-09-25 00:08:30",1270384,3.788,323.5,2.239,0.072,10.5,104.872,11.74,12.78,44.28,0,110.3,13.36,12.54,285.5
"2009-09-25 00:09:00",1270385,3.948,319.4,2.001,0.112,10.5,104.8698,11.74,12.78,44.28,0,110.3,13.36,12.53,281.4
"2009-09-25 00:09:30",1270386,3.791,321.4,0.6,0.05,10.85,104.8683,11.74,12.78,44.36,0,110.3,13.36,12.53,283.4
"2009-09-25 00:10:00",1270387,3.706,319.4,1.706,0.139,11.09,104.8758,11.75,12.79,44.44,0,110.3,13.36,12.55,281.4
"2009-09-25 00:10:30",1270388,4.649,322.8,8.6,1.289,13.34,104.8753,11.75,12.92,44.68,0,110.3,13.33,12.55,284.8
"2009-09-25 00:11:00",1270389,4.865,330,6.655,1.224,13.67,104.8728,11.75,12.89,44.64,0,110.3,13.33,12.54,292.0
"2009-09-25 00:11:30",1270390,5.237,324.9,6.688,1.401,14.26,104.872,11.74,12.94,44.55,0,110.3,13.33,12.54,286.9
"2009-09-25 00:12:00",1270391,4.641,321.1,6.804,1.221,12.61,104.8721,11.75,12.97,44.59,0,110.3,13.33,12.54,283.1
"2009-09-25 00:12:30",1270392,5.023,325,5.902,1.506,13.76,104.8748,11.75,13.04,44.51,0,110.3,13.33,12.55,287.0
"2009-09-25 00:13:00",1270393,4.268,327.7,9.91,1.356,12.44,104.876,11.76,12.83,44.44,0,110.3,13.32,12.55,289.7
"2009-09-25 00:13:30",1270394,2.863,315.8,3.654,0.095,10.25,104.8767,11.76,12.79,44.63,0,110.3,13.35,12.55,277.8
"2009-09-25 00:14:00",1270395,3.1,315.1,5.015,0.178,10.45,104.877,11.76,12.78,44.83,0,110.3,13.35,12.55,277.1
"2009-09-25 00:14:30",1270396,3.183,316.4,4.065,0.231,10.88,104.8796,11.76,12.8,44.73,0,110.3,13.35,12.56,278.4
"2009-09-25 00:15:00",1270397,4.145,313.4,8.07,1.285,13.09,104.8809,11.77,12.86,44.94,0,110.3,13.32,12.56,275.4
"2009-09-25 00:15:30",1270398,3.257,315.9,5.464,0.799,12.36,104.8786,11.76,12.93,44.95,0,110.3,13.33,12.55,277.9
"2009-09-25 00:16:00",1270399,4.191,318.9,5.969,1.243,13.95,104.8793,11.76,12.97,44.9,0,110.3,13.33,12.56,280.9
"2009-09-25 00:16:30",1270400,3.601,313.6,7.419,1.207,12.55,104.8819,11.77,12.88,44.84,0,110.3,13.32,12.56,275.6
"2009-09-25 00:17:00",1270401,4.352,316.2,8.33,1.362,13.62,104.8777,11.76,13.02,45.09,0,110.3,13.32,12.55,278.2
"2009-09-25 00:17:30",1270402,3.342,308.2,6.778,1.202,12.04,104.8786,11.76,12.93,45.48,0,110.3,13.31,12.55,270.2
"2009-09-25 00:18:00",1270403,2.578,306,4.26,0.228,10.23,104.8759,11.75,12.79,45.93,0,110.3,13.35,12.55,268.0
"2009-09-25 00:18:30",1270404,3.053,312.6,1.573,0.134,10.36,104.872,11.74,12.78,45.41,0,110.3,13.35,12.54,274.6
"2009-09-25 00:19:00",1270405,3.661,316,4.903,0.295,10.79,104.8704,11.74,12.79,45.22,0,110.3,13.35,12.53,278.0
"2009-09-25 00:19:30",1270406,3.621,327.9,5.95,0.553,11.3,104.8716,11.74,12.83,44.73,0,110.3,13.32,12.54,289.9
"2009-09-25 00:20:00",1270407,4.049,331.1,7.177,1.451,13.61,104.8713,11.74,12.87,44.76,0,110.3,13.32,12.54,293.1
"2009-09-25 00:20:30",1270408,3.74,334.3,4.599,0.84,11.87,104.8719,11.74,12.77,44.79,0,110.3,13.32,12.54,296.3
"2009-09-25 00:21:00",1270409,4.582,342.2,9.21,1.3,14,104.8686,11.74,12.91,44.48,0,110.3,13.33,12.53,304.2
"2009-09-25 00:21:30",1270410,2.881,328.5,3.615,0.735,11.7,104.8598,11.71,12.82,44.33,0,110.3,13.33,12.51,290.5
"2009-09-25 00:22:00",1270411,4.766,337.6,5.558,1.169,14.55,104.8409,11.67,13.01,44.69,0,110.3,13.33,12.46,299.6
"2009-09-25 00:22:30",1270412,4.056,334.4,6.279,1.261,12.93,104.8395,11.66,12.78,44.52,0,110.3,13.33,12.45,296.4
"2009-09-25 00:23:00",1270413,2.797,330.5,2.019,0.123,10.48,104.8392,11.66,12.73,44.57,0,110.3,13.36,12.45,292.5
"2009-09-25 00:23:30",1270414,3.291,328,3.84,0.172,10.67,104.8392,11.66,12.72,44.71,0,110.3,13.36,12.45,290.0
"2009-09-25 00:24:00",1270415,3.533,318.6,4.106,0.439,11.17,104.8392,11.66,12.8,44.9,0,110.3,13.33,12.45,280.6
"2009-09-25 00:24:30",1270416,4.092,324.4,6.663,1.57,13.15,104.8347,11.65,12.76,45.22,0,110.3,13.33,12.44,286.4
"2009-09-25 00:25:00",1270417,2.497,324.7,9.59,0.446,11.81,104.8133,11.59,12.75,45.91,0,110.3,13.36,12.39,286.7
"2009-09-25 00:25:30",1270418,3.522,324.9,7.559,0.965,13.29,104.8054,11.57,12.71,45.99,0,110.3,13.33,12.37,286.9
"2009-09-25 00:26:00",1270419,4.118,335.3,9.67,1.334,14.38,104.8054,11.57,12.89,46.08,0,110.3,13.33,12.37,297.3
"2009-09-25 00:26:30",1270420,3.566,332.8,11.62,1.466,12.48,104.8054,11.57,12.69,45.75,0,110.3,13.33,12.37,294.8
"2009-09-25 00:27:00",1270421,3.798,324.2,7.977,1.286,14.51,104.8026,11.57,12.87,46.16,0,110.3,13.33,12.36,286.2
"2009-09-25 00:27:30",1270422,2.29,323.1,7.846,1.117,11.33,104.7874,11.53,12.61,46.3,0,110.3,13.33,12.32,285.1
"2009-09-25 00:28:00",1270423,2.122,323.9,5.521,0.249,10.44,104.7716,11.49,12.6,46.45,0,110.3,13.37,12.28,285.9
"2009-09-25 00:28:30",1270424,3.197,334.4,3.327,0.27,10.66,104.7716,11.49,12.59,46.33,0,110.3,13.37,12.28,296.4
"2009-09-25 00:29:00",1270425,4.643,336.5,5.951,1.189,13.12,104.7716,11.49,12.71,45.98,0,110.3,13.34,12.28,298.5
"2009-09-25 00:29:30",1270426,3.567,337.1,7.058,0.813,12.44,104.7716,11.49,12.7,45.81,0,110.3,13.34,12.28,299.1
"2009-09-25 00:30:00",1270427,4.096,341.6,7.682,1.338,12.73,104.7699,11.48,12.55,45.71,0,110.3,13.34,12.28,303.6
"2009-09-25 00:30:30",1270428,3.622,341.7,6.703,0.695,12.11,104.764,11.47,12.69,46.05,0,110.3,13.34,12.26,303.7
"2009-09-25 00:31:00",1270429,4.622,343.2,12.41,1.354,14.37,104.7448,11.42,12.6,46.12,0,110.3,13.34,12.21,305.2
"2009-09-25 00:31:30",1270430,4.154,334.7,13.4,1.371,13.06,104.7377,11.4,12.67,46.46,0,110.3,13.34,12.19,296.7
"2009-09-25 00:32:00",1270431,4.089,343,8.56,1.301,12.44,104.7377,11.4,12.5,46.46,0,110.3,13.34,12.19,305.0
"2009-09-25 00:32:30",1270432,4.858,345.5,7.546,1.435,13.4,104.7377,11.4,12.68,46.54,0,110.3,13.33,12.19,307.5
"2009-09-25 00:33:00",1270433,3.911,347.9,6.004,1.158,13,104.7377,11.4,12.57,46.79,0,110.3,13.33,12.19,309.9
"2009-09-25 00:33:30",1270434,2.978,330.3,9.94,0.806,11.89,104.7341,11.39,12.63,47.36,0,110.3,13.34,12.18,292.3
"2009-09-25 00:34:00",1270435,2.904,335.1,7.335,1.077,12.01,104.716,11.35,12.46,47.5,0,110.3,13.34,12.14,297.1
"2009-09-25 00:34:30",1270436,2.376,335.1,6.005,0.485,10.84,104.7042,11.32,12.43,47.43,0,110.3,13.36,12.11,297.1
"2009-09-25 00:35:00",1270437,3.734,341.2,8.53,1.349,13.39,104.7051,11.32,12.59,47.46,0,110.3,13.33,12.11,303.2
"2009-09-25 00:35:30",1270438,3.103,342.1,10.51,1.402,12.6,104.7051,11.32,12.54,47.63,0,110.3,13.33,12.11,304.1
"2009-09-25 00:36:00",1270439,3.577,334.4,8.7,1.297,13.42,104.7059,11.32,12.58,47.56,0,110.3,13.33,12.11,296.4
"2009-09-25 00:36:30",1270440,2.78,331.6,6.324,0.801,11.14,104.7092,11.33,12.39,47.39,0,110.3,13.34,12.12,293.6
"2009-09-25 00:37:00",1270441,2.952,335.6,3.811,0.18,10.88,104.7107,11.33,12.39,47.52,0,110.3,13.37,12.12,297.6
"2009-09-25 00:37:30",1270442,4.131,341.6,6.99,1.55,13.1,104.7059,11.32,12.57,47.89,0,110.3,13.34,12.11,303.6
"2009-09-25 00:38:00",1270443,4.714,335.2,6.214,1.216,13.69,104.7009,11.31,12.62,47.83,0,110.3,13.34,12.10,297.2
"2009-09-25 00:38:30",1270444,4.996,340.8,10.73,1.334,13.15,104.6903,11.28,12.44,47.5,0,110.2,13.34,12.07,302.8
"2009-09-25 00:39:00",1270445,4.33,330.8,3.232,0.357,10.83,104.6818,11.26,12.36,47.48,0,110.2,13.38,12.05,292.8
"2009-09-25 00:39:30",1270446,5.808,331.7,7.389,1.475,13.15,104.6822,11.26,12.4,48,0,110.2,13.34,12.05,293.7
"2009-09-25 00:40:00",1270447,5.541,333.1,8.4,1.424,13.75,104.6866,11.27,12.54,48.38,0,110.2,13.34,12.06,295.1
"2009-09-25 00:40:30",1270448,4.03,341.3,5.322,1.358,12.87,104.6907,11.28,12.4,48.28,0,110.2,13.34,12.07,303.3
"2009-09-25 00:41:00",1270449,2.19,351.5,6.571,0.476,11.1,104.6954,11.29,12.37,48.07,0,110.2,13.38,12.08,313.5
"2009-09-25 00:41:30",1270450,2.346,348.3,6.879,0.466,10.91,104.6927,11.29,12.32,48.14,0,110.2,13.38,12.08,310.3
"2009-09-25 00:42:00",1270451,3.01,356.8,8.62,1.424,13.73,104.6849,11.27,12.56,48.65,0,110.2,13.34,12.06,318.8
"2009-09-25 00:42:30",1270452,3.877,332.6,12.65,1.208,13.28,104.6683,11.22,12.48,48.84,0,110.2,13.34,12.01,294.6
"2009-09-25 00:43:00",1270453,2.488,317.3,2.141,0.103,10.6,104.6702,11.23,12.28,48.71,0,110.2,13.38,12.02,279.3
"2009-09-25 00:43:30",1270454,3.043,317.4,2.058,0.207,10.44,104.6716,11.23,12.27,48.79,0,110.2,13.38,12.02,279.4
"2009-09-25 00:44:00",1270455,3.362,314.9,1.529,0.171,10.71,104.6713,11.23,12.24,48.66,0,110.2,13.38,12.02,276.9
"2009-09-25 00:44:30",1270456,3.339,319.4,6.931,0.572,11.62,104.6716,11.23,12.36,49.08,0,110.2,13.35,12.02,281.4
"2009-09-25 00:45:00",1270457,5.304,341.1,7.62,1.164,15.13,104.6716,11.23,12.5,49.35,0,110.2,13.35,12.02,303.1
"2009-09-25 00:45:30",1270458,3.755,336.5,5.703,1.031,12.62,104.6716,11.23,12.35,49.13,0,110.2,13.35,12.02,298.5
"2009-09-25 00:46:00",1270459,3.798,333.2,4.474,1.135,12.35,104.6705,11.23,12.31,48.96,0,110.2,13.35,12.02,295.2
"2009-09-25 00:46:30",1270460,3.164,331.1,6.362,1.229,11.82,104.6629,11.21,12.33,49.06,0,110.2,13.35,12.00,293.1
"2009-09-25 00:47:00",1270461,3.877,340.1,13.13,1.215,14.19,104.6575,11.2,12.49,49.51,0,110.2,13.35,11.99,302.1
"2009-09-25 00:47:30",1270462,3.992,327.9,8.41,1.162,11.83,104.6412,11.15,12.21,49.49,0,110.2,13.35,11.95,289.9
"2009-09-25 00:48:00",1270463,3.274,319.5,3.888,0.316,10.46,104.6378,11.15,12.19,49.57,0,110.2,13.38,11.94,281.5
"2009-09-25 00:48:30",1270464,3.878,314.4,1.744,0.267,10.67,104.6378,11.15,12.18,49.33,0,110.2,13.39,11.94,276.4
"2009-09-25 00:49:00",1270465,5.999,324.3,7.019,1.335,14.51,104.6378,11.15,12.35,49.45,0,110.2,13.35,11.94,286.3
"2009-09-25 00:49:30",1270466,5.661,328.4,7.185,1.337,14.57,104.6378,11.15,12.45,49.74,0,110.2,13.35,11.94,290.4
"2009-09-25 00:50:00",1270467,4.693,323,9.58,1.294,13.31,104.6378,11.15,12.39,50,0,110.2,13.35,11.94,285.0
"2009-09-25 00:50:30",1270468,5.077,317.9,5.849,1.312,12.65,104.6378,11.15,12.21,49.75,0,110.2,13.34,11.94,279.9
"2009-09-25 00:51:00",1270469,5.738,321.5,6.463,1.279,14.76,104.6369,11.14,12.42,49.75,0,110.2,13.34,11.93,283.5
"2009-09-25 00:51:30",1270470,4.778,314.6,4.974,1.028,11.29,104.6304,11.13,12.22,49.46,0,110.2,13.34,11.92,276.6
"2009-09-25 00:52:00",1270471,4.635,314.9,4.96,0.881,11.42,104.629,11.12,12.25,49.57,0,110.2,13.35,11.91,276.9
"2009-09-25 00:52:30",1270472,4.281,314,0.61,0.061,10.7,104.6237,11.11,12.13,49.56,0,110.2,13.38,11.90,276.0
"2009-09-25 00:53:00",1270473,5.096,319.1,6.008,1.308,12.66,104.6098,11.07,12.19,49.7,0,110.2,13.34,11.86,281.1
"2009-09-25 00:53:30",1270474,5.751,322.3,6.224,1.256,15.03,104.6045,11.06,12.38,49.84,0,110.2,13.34,11.85,284.3
"2009-09-25 00:54:00",1270475,4.8,318.8,5.318,1.041,12.37,104.6039,11.06,12.23,49.71,0,110.2,13.35,11.85,280.8
"2009-09-25 00:54:30",1270476,5.307,321.6,6.392,1.289,13.15,104.6039,11.06,12.24,49.89,0,110.2,13.35,11.85,283.6
"2009-09-25 00:55:00",1270477,5.019,321.2,5.048,0.919,11.77,104.6039,11.06,12.35,49.96,0,110.2,13.35,11.85,283.2
"2009-09-25 00:55:30",1270478,5.878,327.4,6.811,1.404,13.18,104.6039,11.06,12.21,49.44,0,110.2,13.35,11.85,289.4
"2009-09-25 00:56:00",1270479,4.163,321.5,1.084,0.072,10.61,104.6039,11.06,12.17,49.1,0,110.2,13.39,11.85,283.5
"2009-09-25 00:56:30",1270480,4.367,325.4,3.303,0.187,10.71,104.6039,11.06,12.09,48.82,0,110.2,13.39,11.85,287.4
"2009-09-25 00:57:00",1270481,5.751,335.8,7.223,1.277,13.57,104.6039,11.06,12.22,48.52,0,110.2,13.35,11.85,297.8
"2009-09-25 00:57:30",1270482,6.026,336.8,6.265,1.355,14.4,104.6039,11.06,12.35,48.25,0,110.2,13.35,11.85,298.8
"2009-09-25 00:58:00",1270483,6.003,335.8,7.096,1.224,13.8,104.6025,11.06,12.25,48.03,0,110.2,13.35,11.85,297.8
"2009-09-25 00:58:30",1270484,4.975,329.6,7.206,1.415,11.6,104.596,11.04,12.14,47.74,0,110.2,13.35,11.83,291.6
"2009-09-25 00:59:00",1270485,5.426,335.9,7.102,1.012,12.68,104.5892,11.02,12.14,47.81,0,110.2,13.35,11.81,297.9
"2009-09-25 00:59:30",1270486,4.583,327.6,5.261,0.84,10.81,104.5833,11.01,12.18,47.91,0,110.2,13.35,11.80,289.6
"2009-09-25 01:00:00",1270487,5.663,329.8,6.566,1.359,13.25,104.5817,11,12.14,47.88,0,110.2,13.35,11.79,291.8
"2009-09-25 01:00:30",1270488,4.39,324.8,1.657,0.133,10.95,104.5735,10.98,12.05,47.68,0,110.2,13.39,11.77,286.8
"2009-09-25 01:01:00",1270489,5.221,325.4,3.896,1.24,12.95,104.5704,10.97,12.23,47.82,0,110.2,13.35,11.76,287.4
"2009-09-25 01:01:30",1270490,5.799,333.3,7.196,1.262,14.75,104.5704,10.97,12.3,48.03,0,110.2,13.35,11.76,295.3
"2009-09-25 01:02:00",1270491,6.063,335.1,5.894,1.147,14.38,104.5715,10.98,12.13,47.82,0,110.2,13.35,11.77,297.1
"2009-09-25 01:02:30",1270492,4.771,332.3,6.336,1.152,12.85,104.5727,10.98,12.18,47.69,0,110.2,13.36,11.77,294.3
"2009-09-25 01:03:00",1270493,4.055,326.5,2.64,0.624,10.44,104.5733,10.98,12.03,47.58,0,110.2,13.36,11.77,288.5
"2009-09-25 01:03:30",1270494,3.829,324.8,1.508,0.066,10.65,104.5754,10.99,12.05,47.72,0,110.2,13.39,11.78,286.8
"2009-09-25 01:04:00",1270495,5.393,332.4,7.457,1.45,13.35,104.576,10.99,12.18,47.83,0,110.2,13.36,11.78,294.4
"2009-09-25 01:04:30",1270496,3.974,324.1,0.565,0.05,11.15,104.5727,10.98,12.04,47.58,0,110.2,13.39,11.77,286.1
"2009-09-25 01:05:00",1270497,4.332,326.9,4.921,0.919,12.27,104.5676,10.97,12.16,47.94,0,110.2,13.36,11.76,288.9
"2009-09-25 01:05:30",1270498,5.608,332.5,7,1.269,14.52,104.5634,10.96,12.24,48.21,0,110.2,13.35,11.75,294.5
"2009-09-25 01:06:00",1270499,6.222,336.3,5.938,1.037,15.1,104.5547,10.93,12.22,48.18,0,110.2,13.35,11.72,298.3
"2009-09-25 01:06:30",1270500,5.551,332.6,6.042,1.233,13.12,104.5483,10.92,12.13,47.44,0,110.2,13.35,11.71,294.6
"2009-09-25 01:07:00",1270501,4.26,324.3,1.099,0.104,10.73,104.5492,10.92,12.01,46.98,0,110.2,13.35,11.71,286.3
"2009-09-25 01:07:30",1270502,4.462,323.7,1.801,0.176,10.69,104.553,10.93,11.99,46.85,0,110.2,13.39,11.72,285.7
"2009-09-25 01:08:00",1270503,5.117,324.2,2.61,0.674,10.9,104.5563,10.94,12.1,46.69,0,110.2,13.35,11.73,286.2
"2009-09-25 01:08:30",1270504,6.741,329.3,7.383,1.316,13.16,104.5586,10.94,12.05,47.02,0,110.2,13.35,11.73,291.3
"2009-09-25 01:09:00",1270505,7.137,328.5,5.646,1.458,14.37,104.5619,10.95,12.18,47.57,0,110.2,13.35,11.74,290.5
"2009-09-25 01:09:30",1270506,7.949,332.2,6.489,1.246,14.57,104.5625,10.95,12.25,47.74,0,110.2,13.35,11.74,294.2
"2009-09-25 01:10:00",1270507,7.702,333.5,6.138,1.355,14.7,104.5645,10.96,12.26,47.55,0,110.2,13.35,11.75,295.5
"2009-09-25 01:10:30",1270508,6.867,330,6.713,0.992,12.13,104.5672,10.96,12.11,47.2,0,110.2,13.35,11.76,292.0
"2009-09-25 01:11:00",1270509,6.117,327.6,1.14,0.116,10.58,104.5653,10.96,11.97,46.92,0,110.2,13.39,11.75,289.6
"2009-09-25 01:11:30",1270510,7.435,336,6.366,1.403,12.73,104.5599,10.95,12.02,46.9,0,110.2,13.36,11.74,298.0
"2009-09-25 01:12:00",1270511,6.324,334.2,5.99,1.137,12.5,104.5555,10.93,12.13,46.96,0,110.2,13.36,11.73,296.2
"2009-09-25 01:12:30",1270512,7.922,339.1,5.995,1.262,14.15,104.5391,10.89,12.04,46.78,0,110.2,13.36,11.68,301.1
"2009-09-25 01:13:00",1270513,7.9,339.3,5.928,1.232,15.04,104.5372,10.89,12.18,46.9,0,110.2,13.36,11.68,301.3
"2009-09-25 01:13:30",1270514,7.855,339.9,5.936,1.196,15.14,104.5369,10.89,12.18,46.91,0,110.2,13.36,11.68,301.9
"2009-09-25 01:14:00",1270515,6.986,335.9,6.29,1.162,12.6,104.5378,10.89,12.03,47.17,0,110.2,13.36,11.68,297.9
"2009-09-25 01:14:30",1270516,6.107,331.3,0.591,0.103,10.14,104.5378,10.89,11.92,47.11,0,110.2,13.4,11.68,293.3
"2009-09-25 01:15:00",1270517,5.803,331.9,0.606,0.082,10.5,104.5378,10.89,11.91,47.2,0,110.2,13.4,11.68,293.9
"2009-09-25 01:15:30",1270518,6.798,337.1,6.333,1.157,12.86,104.5361,10.89,12.07,47.48,0,110.2,13.37,11.68,299.1
"2009-09-25 01:16:00",1270519,7.028,339.8,6.632,1.35,13.39,104.529,10.87,12.08,47.62,0,110.2,13.37,11.66,301.8
"2009-09-25 01:16:30",1270520,7.269,342.2,6.636,1.264,14.45,104.52,10.84,12.14,47.83,0,110.2,13.37,11.63,304.2
"2009-09-25 01:17:00",1270521,7.544,342.3,6.227,1.203,14.49,104.5059,10.81,12.12,47.93,0,110.2,13.37,11.60,304.3
"2009-09-25 01:17:30",1270522,6.624,342.5,7.102,1.266,13.2,104.5039,10.8,12.08,48,0,110.2,13.36,11.59,304.5
"2009-09-25 01:18:00",1270523,5.672,338.3,1.145,0.087,10.05,104.5039,10.8,11.84,47.84,0,110.2,13.4,11.59,300.3
"2009-09-25 01:18:30",1270524,5.704,339.3,2.317,0.105,10.09,104.5039,10.8,11.84,47.91,0,110.2,13.4,11.59,301.3
"2009-09-25 01:19:00",1270525,6.009,338.5,0.844,0.127,10.65,104.503,10.8,11.83,47.94,0,110.2,13.4,11.59,300.5
"2009-09-25 01:19:30",1270526,7.206,345.8,6.407,1.363,13.63,104.496,10.78,12.06,48.28,0,110.2,13.37,11.57,307.8
"2009-09-25 01:20:00",1270527,7.961,350.8,4.107,0.725,15.7,104.4861,10.76,12.12,48.52,0,110.2,13.37,11.55,312.8
"2009-09-25 01:20:30",1270528,7.316,349.6,5.827,1.175,14.45,104.4723,10.72,12.06,48.59,0,110.2,13.37,11.51,311.6
"2009-09-25 01:21:00",1270529,6.49,344.9,6.137,1.336,12.84,104.47,10.72,11.89,48.6,0,110.2,13.37,11.51,306.9
"2009-09-25 01:21:30",1270530,4.708,342,5.206,0.233,9.85,104.47,10.72,11.78,48.89,0,110.2,13.4,11.51,304.0
"2009-09-25 01:22:00",1270531,4.462,342.5,4.634,0.203,9.84,104.47,10.72,11.78,48.99,0,110.2,13.4,11.51,304.5
"2009-09-25 01:22:30",1270532,4.372,345.9,1.719,0.199,10.25,104.4672,10.71,11.76,49.02,0,110.2,13.4,11.50,307.9
"2009-09-25 01:23:00",1270533,4.002,359.3,9.7,0.911,12.73,104.4573,10.68,11.95,49.15,0,110.1,13.37,11.47,321.3
"2009-09-25 01:23:30",1270534,3.677,8.5,10.25,1.176,14.46,104.4401,10.64,11.97,49.25,0,110.1,13.36,11.43,330.5
"2009-09-25 01:24:00",1270535,1.863,6.203,14.7,1.154,11.73,104.4362,10.63,11.87,49.25,0,110.1,13.36,11.42,328.2
"2009-09-25 01:24:30",1270536,2.804,10.81,11.91,1.361,13.31,104.4362,10.63,11.89,49.36,0,110.1,13.36,11.42,332.8
"2009-09-25 01:25:00",1270537,1.951,8.63,10.9,1.069,10.64,104.4271,10.61,11.75,49.62,0,110.2,13.36,11.40,330.6
"2009-09-25 01:25:30",1270538,2.744,15.83,12.37,1.506,10.91,104.4147,10.57,11.77,50.4,0,110.1,13.36,11.36,337.8
"2009-09-25 01:26:00",1270539,1.36,11.99,10.4,0.604,9.32,104.4023,10.54,11.62,50.57,0,110.1,13.4,11.33,334.0
"2009-09-25 01:26:30",1270540,1.531,9.5,10.08,0.489,9.52,104.4015,10.54,11.62,50.83,0,110.1,13.4,11.33,331.5
"2009-09-25 01:27:00",1270541,1.109,22.39,12.12,0.536,9.77,104.3873,10.5,11.58,51.09,0,110.1,13.4,11.29,344.4
"2009-09-25 01:27:30",1270542,3.24,62.06,11.37,1.583,11.75,104.3684,10.46,11.61,52.81,0,110.1,13.37,11.24,24.1
"2009-09-25 01:28:00",1270543,2.36,50.52,13.92,1.055,11.47,104.3684,10.46,11.67,53.27,0,110.1,13.37,11.24,12.5
"2009-09-25 01:28:30",1270544,3.62,34.39,18.2,1.115,14.23,104.3673,10.45,11.76,53.51,0,110.1,13.38,11.24,356.4
"2009-09-25 01:29:00",1270545,4.51,65.59,12.12,1.266,13.62,104.3557,10.42,11.75,53.2,0,110.1,13.38,11.21,27.6
"2009-09-25 01:29:30",1270546,3.279,58.45,24.37,1.157,13.13,104.3365,10.37,11.66,53.08,0,110.1,13.37,11.16,20.5
"2009-09-25 01:30:00",1270547,1.228,11.7,8.12,0.689,9.84,104.3346,10.37,11.45,52.65,0,110.1,13.37,11.16,333.7
"2009-09-25 01:30:30",1270548,0.73,9.78,23.14,0.446,9.12,104.3346,10.37,11.44,52.45,0,110.1,13.41,11.16,331.8
"2009-09-25 01:31:00",1270549,0.239,130.3,51.53,0.189,8.73,104.3343,10.37,11.42,52.82,0,110.1,13.41,11.16,92.3
"2009-09-25 01:31:30",1270550,0.348,94.7,48.32,0.213,9.02,104.3111,10.31,11.4,53.63,0,110.1,13.41,11.10,56.7
"2009-09-25 01:32:00",1270551,1.518,33,12.58,0.297,9.45,104.3007,10.28,11.38,53.98,0,110.1,13.42,11.07,355.0
"2009-09-25 01:32:30",1270552,3.282,43.36,7.21,1.509,11.59,104.3007,10.28,11.41,54.03,0,110.1,13.38,11.07,5.4
"2009-09-25 01:33:00",1270553,3.456,52.43,14.15,1.098,11.61,104.2951,10.27,11.5,54.21,0,110.1,13.38,11.06,14.4
"2009-09-25 01:33:30",1270554,4.921,75.32,9.9,1.192,14.69,104.2773,10.22,11.5,54.03,0,110.1,13.38,11.01,37.3
"2009-09-25 01:34:00",1270555,4.138,49.59,9.08,1.134,13.99,104.2671,10.2,11.59,53.95,0,110.1,13.38,10.98,11.6
"2009-09-25 01:34:30",1270556,3.412,35.47,5.724,1.284,11.95,104.2671,10.2,11.41,53.41,0,110.1,13.38,10.98,357.5
"2009-09-25 01:35:00",1270557,2.171,32.23,6.127,1.083,11.23,104.2615,10.18,11.46,53.03,0,110.1,13.38,10.97,354.2
"2009-09-25 01:35:30",1270558,1.514,24.2,4.888,0.16,9.36,104.2421,10.13,11.27,52.75,0,110.1,13.42,10.92,346.2
"2009-09-25 01:36:00",1270559,1.556,26.18,4.679,0.227,9.28,104.2342,10.11,11.23,52.61,0,110.1,13.42,10.90,348.2
"2009-09-25 01:36:30",1270560,1.793,24.65,5.395,0.298,9.62,104.2353,10.12,11.22,52.65,0,110.1,13.42,10.90,346.6
"2009-09-25 01:37:00",1270561,2.141,24.3,6.392,0.554,10.04,104.2339,10.11,11.2,52.82,0,110.1,13.39,10.90,346.3
"2009-09-25 01:37:30",1270562,2.738,5.096,12.95,1.242,12.21,104.2148,10.06,11.34,53.25,0,110.1,13.39,10.85,327.1
"2009-09-25 01:38:00",1270563,2.948,10.29,6.459,1.142,12.13,104.2056,10.04,11.25,53.46,0,110.1,13.38,10.83,332.3
"2009-09-25 01:38:30",1270564,2.989,29.34,8.14,1.171,12.75,104.2076,10.05,11.39,53.82,0,110.1,13.38,10.83,351.3
"2009-09-25 01:39:00",1270565,2.315,20.03,12.1,1.455,13.08,104.2088,10.05,11.27,53.99,0,110.1,13.38,10.84,342.0
"2009-09-25 01:39:30",1270566,2.897,40.96,6.072,0.908,11.44,104.2115,10.05,11.21,54.13,0,110.2,13.38,10.84,3.0
"2009-09-25 01:40:00",1270567,1.017,28.24,6.051,0.295,9.24,104.2113,10.05,11.19,54.6,0,110.1,13.41,10.84,350.2
"2009-09-25 01:40:30",1270568,1.136,36.84,8.03,0.596,8.79,104.197,10.02,11.11,54.71,0,110.1,13.41,10.80,358.8
"2009-09-25 01:41:00",1270569,1.833,35.05,7.531,0.24,9,104.1855,9.99,11.09,54.8,0,110.1,13.41,10.78,357.0
"2009-09-25 01:41:30",1270570,1.621,57.71,12.44,0.303,9.46,104.1867,9.99,11.08,55.13,0,110.1,13.41,10.78,19.7
"2009-09-25 01:42:00",1270571,2.314,77.52,6.04,1.26,11.51,104.1891,10,11.21,55.47,0,110.1,13.39,10.78,39.5
"2009-09-25 01:42:30",1270572,2.554,76.66,7.009,1.015,10.96,104.1894,10,11.15,55.78,0,110.1,13.38,10.79,38.7
"2009-09-25 01:43:00",1270573,1.771,57.29,4.275,0.144,10.73,104.183,9.98,11.09,56,0,110.1,13.42,10.77,19.3
"2009-09-25 01:43:30",1270574,4.174,66.96,10.41,1.125,14.2,104.1775,9.97,11.23,56.38,0,110.1,13.39,10.75,29.0
"2009-09-25 01:44:00",1270575,3.304,42.02,8.08,1.278,13.91,104.1639,9.93,11.31,56.34,0,110.1,13.39,10.72,4.0
"2009-09-25 01:44:30",1270576,1.847,51.38,8.01,1.153,10.91,104.1637,9.93,11.07,55.58,0,110.1,13.39,10.72,13.4
"2009-09-25 01:45:00",1270577,0.965,40.26,2.584,0.104,9.13,104.1649,9.94,10.97,55.65,0,110.1,13.42,10.72,2.3
"2009-09-25 01:45:30",1270578,0.777,35.89,4.632,0.147,8.78,104.1624,9.93,10.96,55.42,0,110.1,13.42,10.72,357.9
"2009-09-25 01:46:00",1270579,0.554,21.12,6.273,0.137,9.15,104.1542,9.91,10.95,55.21,0,110.1,13.42,10.70,343.1
"2009-09-25 01:46:30",1270580,0.704,30.57,6.899,0.104,9.28,104.1382,9.87,10.93,55.1,0,110.1,13.42,10.65,352.6
"2009-09-25 01:47:00",1270581,0.774,33.3,8.29,0.103,9.72,104.1328,9.85,10.92,55.09,0,110.1,13.43,10.64,355.3